Wind_Speed
11 12 12 10 8 7 10 10 11 11 10 9 8 8 7 8 9 10 12 12 11 12 12 11 9 11 10 10 11 11 10 10 7 6 7 6 6 5 7 8 8 8 7 8 7 7 8 9 10
9 11 12 11 5 4 9 10 11 10 9 8 8 7 6 6 6 7 9 8 8 10 11 12 10 10 9 9 9 10 10 11 11 10 10 9 7 6 4 4 5 6 6 6 7 8 8 9 9
7 8 11 12 5 4 7 7 9 10 7 7 7 7 5 4 4 4 6 5 5 6 7 8 8 8 8 7 7 7 8 8 9 8 8 8 8 7 6 6 5 4 3 3 2 3 4 5 6
5 5 7 11 8 4 6 6 5 5 5 5 5 2 3 5 6 4 4 5 5 5 5 4 4 4 4 5 5 5 5 6 7 7 6 6 6 5 4 3 2 2 1 1 2 2 3 3 4
2 4 5 8 8 7 5 3 3 3 3 5 4 3 1 1 1 2 3 4 5 5 5 5 5 5 4 3 2 2 3 3 3 3 3 4 4 3 2 1 0 0 1 2 3 5 6 7 8
5 2 4 5 5 6 7 2 2 2 2 5 4 5 2 2 2 1 2 1 0 1 2 3 3 3 3 3 3 3 3 1 1 1 1 2 3 4 4 4 3 3 5 5 6 7 8 9 10
5 2 2 4 6 7 6 3 3 4 4 5 5 6 5 2 1 1 1 1 0 1 1 0 1 2 2 2 2 2 1 1 1 1 0 1 3 4 4 4 5 6 7 8 8 8 9 9 10
6 4 1 1 3 8 6 5 2 6 4 6 8 6 7 5 2 2 2 1 2 1 2 2 3 3 4 5 5 5 5 4 4 5 6 6 6 6 6 5 5 5 7 6 7 8 9 9 10
8 6 7 5 5 6 8 6 4 6 7 6 8 8 8 6 6 5 6 5 5 6 6 5 6 6 7 7 6 7 8 8 8 9 9 8 7 7 8 6 7 8 8 7 7 7 8 10 10
10 9 10 10 8 6 9 8 7 8 8 8 10 11 10 10 9 10 9 9 9 9 9 9 9 8 8 8 9 9 9 9 9 10 10 9 7 8 9 9 8 9 8 8 9 9 8 9 10
13 12 13 12 11 9 10 9 10 8 10 13 12 10 12 13 12 13 13 12 11 11 10 10 9 8 9 10 11 12 13 12 13 12 12 11 10 9 9 9 9 10 11 11 12 13 14 14 15
15 16 15 15 13 12 12 12 13 10 12 16 15 13 13 14 14 14 14 13 12 11 10 10 11 12 12 13 14 15 17 17 18 16 15 14 13 12 12 13 13 14 15 16 16 18 18 20 21
17 17 15 16 16 15 16 16 14 13 15 16 17 18 16 15 15 15 14 14 14 12 11 12 13 14 15 15 16 18 19 21 21 21 20 18 17 16 17 17 17 17 19 20 21 23 24 25 25
17 17 15 17 18 19 19 18 18 18 18 17 18 19 20 17 16 16 15 15 15 15 16 16 15 15 15 15 14 15 18 20 21 23 22 22 20 21 19 19 20 21 22 25 26 27 28 28 30
18 18 18 21 20 20 21 18 19 20 20 19 20 20 21 21 19 19 17 16 16 16 18 20 20 19 18 16 14 14 16 19 20 21 23 24 23 22 21 22 23 25 27 27 29 30 32 32 33
20 21 21 22 20 20 22 17 23 23 24 23 23 23 22 22 22 22 20 20 19 20 21 23 24 23 22 20 19 17 17 19 21 21 22 23 24 26 27 26 27 28 30 31 32 33 34 33 33
24 25 23 23 24 25 26 21 26 27 27 25 25 24 25 24 24 24 23 23 23 23 23 24 26 28 27 26 24 22 22 23 23 26 25 25 26 28 30 30 30 32 31 33 36 37 37 36 36
29 27 26 26 27 29 29 26 29 29 30 29 26 26 27 27 27 27 26 25 25 25 25 25 27 28 29 28 27 26 26 27 27 29 30 30 30 32 32 32 32 32 34 36 37 38 40 41 42
32 31 30 30 33 33 33 34 34 37 35 31 31 30 28 28 29 29 30 30 29 28 27 28 28 29 29 29 30 28 27 28 30 32 34 35 34 33 34 35 35 34 37 40 41 43 45 48 50
34 35 32 33 36 40 38 39 40 41 38 35 34 30 28 29 29 31 33 34 33 31 29 30 31 32 32 31 30 30 31 31 32 33 34 35 36 35 35 36 37 40 43 45 47 48 52 54 56
36 36 35 38 39 42 44 47 42 35 33 31 31 29 27 27 30 33 35 35 35 34 33 32 32 34 34 33 32 33 34 34 35 36 37 37 38 39 37 39 41 44 47 49 50 53 56 57 58
40 37 40 39 42 47 48 54 39 32 29 29 25 28 28 29 32 36 37 37 37 37 35 35 35 34 34 34 34 34 34 35 36 36 36 38 38 39 40 43 45 47 50 52 55 56 56 58 60
41 39 40 42 48 51 50 53 45 32 25 22 26 30 29 30 32 34 36 38 38 37 38 38 37 36 34 35 35 35 35 36 35 35 35 35 37 40 44 46 48 51 53 54 55 56 59 62 63
43 42 43 47 51 61 51 53 54 38 28 25 26 30 33 35 34 35 37 38 38 38 38 37 36 36 35 36 36 36 36 35 35 34 35 37 41 43 46 49 51 52 54 56 58 61 63 65 66
46 45 47 53 57 63 55 55 50 43 34 33 31 32 33 35 37 37 39 39 39 38 38 37 37 36 36 36 36 36 37 35 34 36 38 41 44 46 50 52 53 55 59 62 65 68 69 71 71
41 41 47 52 57 56 52 44 33 31 26 27 28 27 30 35 37 36 37 38 38 38 37 36 36 35 35 35 36 37 35 35 37 40 42 43 45 48 51 54 58 61 65 68 70 72 73 74 77
52 59 54 54 57 56 48 42 37 37 35 31 26 27 29 32 35 35 36 36 35 35 36 36 36 36 36 37 38 38 36 37 39 41 43 45 48 52 56 59 63 66 69 71 74 75 76 78 80
54 47 46 49 54 55 53 49 46 42 40 40 34 31 30 32 31 33 36 38 38 37 37 37 39 40 40 40 40 40 40 40 42 44 47 51 54 57 60 62 64 67 70 73 75 76 78 81 84
47 46 48 51 53 54 53 47 48 45 39 37 37 32 26 26 29 33 37 39 40 40 40 39 38 39 41 43 44 44 42 44 46 49 53 56 58 60 62 64 67 70 72 75 76 78 81 82 83
50 51 51 52 50 50 51 45 46 46 38 36 37 37 37 32 32 34 36 39 38 37 38 39 41 42 43 43 43 42 45 48 50 54 57 58 60 62 63 65 68 71 74 76 78 80 81 81 82
Wind_Direction
76 67 57 62 70 90 97 91 81 78 70 72 76 83 78 85 87 89 90 99 107 115 121 116 107 102 101 99 99 97 98 107 132 158 187 184 185 193 189 202 210 223 231 232 244 253 260 264 271
84 67 60 54 48 69 96 86 86 80 74 73 67 74 78 89 95 99 104 106 108 107 110 118 128 126 127 125 115 115 117 116 119 124 124 134 137 140 155 190 208 226 232 249 258 261 261 262 263
83 72 65 60 54 70 85 75 76 87 63 49 67 67 71 79 93 91 99 103 101 104 108 110 114 118 120 118 120 127 127 126 127 128 135 134 129 131 144 155 164 172 180 204 228 274 295 295 298
101 66 64 64 56 43 54 68 64 61 79 62 47 81 80 70 74 94 89 86 77 76 79 82 89 107 118 122 128 130 116 124 127 140 138 130 136 142 152 152 159 184 211 260 284 281 279 294 297
120 76 35 48 36 32 28 62 38 43 2 34 38 32 161 172 157 92 82 87 95 87 79 66 62 61 64 78 100 136 151 149 149 145 127 115 126 143 150 165 236 338 308 302 309 308 313 316 316
171 100 39 27 23 17 28 27 308 355 290 338 353 5 3 244 235 211 167 204 101 65 67 63 51 51 60 66 79 85 100 114 146 270 261 227 215 204 213 223 256 286 295 297 299 307 312 312 312
201 165 61 357 353 343 24 21 251 273 269 282 309 338 348 308 225 231 183 278 342 335 326 308 297 303 304 288 296 314 298 165 153 172 195 278 280 268 266 278 282 279 281 285 292 296 296 303 312
219 242 287 342 329 319 354 351 293 267 291 283 298 312 325 336 316 266 275 300 309 290 273 258 256 268 280 281 276 269 260 253 249 246 236 238 244 256 254 252 265 296 295 288 305 315 319 318 319
235 266 292 312 307 312 322 333 308 269 280 282 284 287 288 298 301 275 268 280 286 283 281 287 296 291 279 280 278 269 267 258 253 251 252 253 257 275 289 286 278 279 273 281 286 279 293 298 298
241 255 280 300 304 293 300 316 296 279 283 276 265 272 273 274 279 285 282 281 283 281 278 281 286 286 283 278 273 266 259 256 253 256 258 260 258 261 264 260 259 264 271 276 278 284 277 275 281
248 259 272 282 291 286 292 299 296 297 280 276 277 271 264 266 269 275 283 281 275 276 281 277 271 282 290 288 281 277 273 267 259 256 258 260 268 261 254 260 258 253 254 256 266 271 278 281 281
250 260 269 279 279 279 285 292 296 299 274 281 282 273 269 265 262 263 270 272 268 268 268 268 267 283 288 288 286 282 271 267 267 267 266 263 258 254 254 256 258 261 266 272 276 281 286 288 287
256 263 270 277 280 280 284 288 291 288 278 274 282 282 273 268 266 264 263 263 263 262 260 261 269 277 284 287 291 287 282 277 270 262 258 258 258 262 262 261 266 270 281 284 286 283 288 293 293
257 265 272 274 276 280 282 283 290 281 282 286 274 273 274 270 264 265 265 262 261 263 266 266 268 273 277 280 282 283 281 274 273 270 265 267 265 266 272 276 278 279 282 282 284 289 289 288 290
259 266 272 274 275 278 281 289 282 285 282 285 284 275 272 270 265 267 266 263 261 263 267 271 272 271 269 268 271 277 285 283 277 271 268 271 273 278 281 284 283 285 288 290 292 292 294 299 301
262 264 272 276 278 281 285 287 280 281 280 280 279 274 272 269 268 267 265 263 263 264 263 265 267 266 265 265 264 264 271 276 280 277 272 274 276 280 280 281 286 290 290 290 292 296 295 295 296
264 265 275 284 283 281 281 285 281 282 283 282 279 277 271 268 266 265 265 266 269 270 272 270 271 272 268 265 261 261 262 265 269 275 272 273 272 272 274 278 285 288 290 293 296 297 295 292 295
264 272 278 282 280 280 281 286 283 283 282 282 283 276 270 265 264 264 262 264 267 270 274 277 275 274 276 274 271 271 274 276 278 278 278 275 273 274 277 279 282 288 291 294 295 298 300 297 298
267 272 276 281 281 279 282 284 286 282 279 280 274 271 270 266 262 264 264 263 267 270 269 272 273 272 272 273 274 275 277 279 279 278 277 273 269 268 272 276 281 288 291 297 297 299 301 303 301
267 273 278 278 280 282 284 283 282 283 282 275 272 273 267 261 260 262 262 263 266 269 269 272 271 269 267 268 269 272 277 280 280 279 275 269 265 267 272 278 282 289 293 296 297 298 300 302 300
268 272 277 277 280 284 287 282 284 282 280 274 270 270 264 260 259 261 263 263 265 267 268 272 272 267 265 265 266 270 274 277 279 277 274 272 269 269 276 282 283 288 292 295 298 300 301 301 301
268 272 274 278 281 285 285 285 279 283 282 278 272 263 260 262 263 264 265 266 265 265 269 270 270 268 264 263 265 269 273 275 274 271 271 271 269 270 274 279 281 286 294 298 299 301 301 301 302
271 271 274 276 278 279 280 284 284 279 278 272 264 265 268 265 264 266 268 268 268 267 266 267 268 267 263 263 265 268 271 271 270 269 269 269 270 274 276 280 284 289 293 296 299 300 300 299 300
270 273 275 274 276 276 282 283 278 282 281 270 265 264 264 265 265 266 267 267 268 266 264 264 263 262 262 262 264 267 269 269 268 269 271 274 275 279 281 283 286 290 296 298 299 297 296 298 300
272 273 273 272 271 278 281 275 276 284 276 273 269 265 266 271 270 269 266 267 264 262 262 261 260 259 259 261 263 265 266 268 270 270 273 275 277 281 285 287 290 295 297 297 297 296 297 298 298
267 263 265 273 278 279 277 269 279 286 281 273 268 266 268 272 270 271 262 263 262 260 258 258 258 257 257 260 262 264 266 268 268 270 274 278 281 285 288 290 292 292 293 295 295 296 297 298 300
268 267 267 267 266 271 273 271 275 276 284 278 271 272 275 267 267 265 263 263 261 258 255 254 252 254 257 261 260 263 264 265 269 274 278 282 285 289 290 290 290 290 292 294 295 296 297 299 300
258 263 260 262 266 268 268 271 275 277 277 281 281 284 278 263 265 260 260 261 261 259 256 255 258 259 257 258 262 263 263 270 274 277 281 284 287 288 288 288 290 290 291 293 295 297 298 299 300
259 259 258 262 261 260 266 273 279 275 282 287 287 286 283 263 256 250 255 260 259 260 260 260 256 254 258 261 263 265 269 272 276 280 282 283 285 287 288 289 290 292 294 296 296 297 298 299 299
251 252 252 253 263 265 268 264 275 277 287 293 289 283 277 267 259 260 258 255 256 255 255 255 254 256 257 260 263 265 270 275 279 281 282 283 285 288 289 290 291 293 294 295 295 296 296 297 299
Height
5881 5881 5881 5881 5884 5881 5878 5879 5878 5877 5877 5876 5875 5875 5875 5875 5875 5876 5874 5875 5875 5875 5874 5874 5874 5874 5874 5875 5876 5875 5876 5876 5877 5877 5879 5880 5880 5880 5881 5882 5882 5882 5882 5882 5883 5883 5883 5883 5883
5883 5882 5882 5882 5883 5882 5879 5879 5879 5879 5879 5878 5877 5877 5876 5876 5876 5876 5876 5876 5877 5876 5876 5876 5876 5875 5876 5876 5876 5876 5877 5877 5878 5878 5878 5878 5879 5879 5879 5880 5880 5881 5880 5880 5880 5880 5880 5880 5880
5884 5883 5884 5882 5883 5881 5880 5879 5879 5881 5880 5879 5879 5878 5878 5878 5877 5877 5877 5877 5877 5877 5877 5877 5877 5878 5877 5877 5877 5877 5877 5878 5878 5878 5878 5878 5878 5878 5879 5879 5879 5879 5879 5879 5878 5878 5878 5879 5878
5884 5884 5884 5884 5883 5881 5880 5879 5880 5880 5881 5881 5880 5880 5879 5879 5878 5878 5878 5878 5878 5878 5878 5878 5879 5879 5879 5880 5879 5879 5878 5879 5878 5878 5878 5878 5878 5878 5879 5879 5879 5879 5879 5878 5878 5878 5878 5877 5877
5885 5884 5883 5884 5883 5882 5880 5880 5880 5880 5879 5880 5880 5880 5880 5879 5879 5880 5879 5878 5878 5878 5878 5878 5878 5878 5879 5879 5879 5879 5879 5879 5879 5878 5878 5878 5878 5879 5879 5880 5879 5878 5878 5877 5877 5877 5877 5876 5876
5884 5884 5883 5883 5884 5882 5881 5880 5880 5880 5880 5879 5879 5879 5880 5879 5879 5879 5880 5879 5879 5878 5878 5878 5879 5879 5879 5879 5878 5878 5879 5878 5878 5878 5878 5879 5878 5878 5879 5879 5878 5877 5877 5877 5876 5876 5876 5875 5875
5883 5883 5884 5883 5882 5881 5881 5881 5880 5879 5880 5879 5879 5879 5880 5879 5879 5879 5879 5879 5879 5879 5878 5878 5878 5878 5878 5878 5878 5878 5878 5878 5878 5878 5878 5878 5877 5878 5878 5877 5877 5876 5875 5874 5874 5874 5873 5873 5872
5882 5883 5883 5883 5883 5881 5880 5880 5880 5879 5880 5879 5878 5879 5878 5878 5879 5879 5878 5878 5878 5878 5877 5878 5878 5878 5878 5877 5877 5877 5877 5877 5877 5876 5875 5875 5875 5875 5875 5874 5874 5875 5874 5873 5873 5872 5871 5870 5869
5880 5881 5881 5881 5881 5880 5879 5879 5879 5878 5878 5878 5877 5877 5878 5877 5877 5877 5877 5877 5877 5876 5877 5877 5877 5877 5877 5877 5876 5876 5876 5875 5875 5875 5875 5875 5875 5875 5875 5875 5874 5873 5872 5870 5869 5868 5867 5866 5865
5879 5879 5879 5878 5879 5879 5878 5877 5878 5877 5876 5876 5876 5875 5876 5876 5875 5874 5875 5875 5875 5875 5875 5875 5875 5875 5874 5874 5874 5874 5874 5874 5874 5874 5874 5874 5873 5873 5872 5871 5870 5870 5869 5868 5866 5865 5864 5863 5862
5877 5877 5876 5877 5877 5877 5876 5875 5875 5876 5875 5874 5874 5874 5874 5874 5874 5873 5872 5872 5872 5872 5872 5872 5872 5872 5872 5872 5872 5872 5871 5871 5871 5871 5871 5871 5871 5870 5870 5869 5868 5866 5865 5864 5864 5862 5861 5860 5859
5874 5874 5874 5874 5874 5874 5873 5873 5873 5873 5872 5871 5871 5871 5871 5871 5871 5871 5871 5870 5869 5869 5870 5869 5870 5870 5869 5869 5870 5869 5868 5869 5868 5869 5868 5868 5868 5867 5867 5866 5865 5864 5863 5862 5861 5860 5858 5857 5855
5870 5871 5871 5870 5870 5870 5870 5870 5870 5870 5869 5868 5868 5867 5868 5868 5868 5868 5868 5867 5866 5866 5867 5867 5867 5867 5867 5867 5867 5866 5866 5865 5865 5865 5865 5864 5864 5864 5863 5862 5861 5861 5859 5858 5857 5855 5854 5852 5850
5866 5867 5868 5867 5867 5867 5866 5866 5866 5865 5865 5865 5865 5864 5863 5864 5864 5864 5865 5865 5864 5863 5863 5863 5863 5863 5863 5863 5863 5862 5862 5861 5861 5861 5861 5861 5861 5860 5860 5859 5858 5856 5855 5854 5852 5851 5849 5847 5846
5862 5863 5863 5862 5863 5863 5862 5864 5862 5861 5860 5861 5859 5860 5859 5859 5860 5860 5861 5861 5861 5861 5860 5859 5859 5858 5858 5858 5858 5858 5857 5858 5858 5858 5858 5858 5857 5856 5855 5854 5853 5852 5850 5848 5847 5845 5844 5842 5840
5858 5858 5858 5858 5858 5859 5858 5860 5856 5856 5855 5855 5855 5854 5854 5855 5855 5855 5855 5855 5856 5856 5856 5855 5854 5854 5854 5854 5853 5853 5853 5853 5853 5853 5853 5852 5852 5851 5850 5849 5848 5846 5844 5843 5842 5840 5838 5835 5833
5851 5851 5853 5853 5853 5852 5852 5854 5851 5851 5850 5850 5850 5849 5849 5849 5849 5849 5850 5850 5850 5850 5850 5850 5850 5849 5849 5848 5848 5848 5848 5848 5848 5848 5847 5846 5846 5845 5844 5843 5842 5841 5839 5837 5835 5833 5831 5828 5825
5844 5846 5847 5847 5848 5845 5845 5848 5846 5845 5845 5845 5845 5843 5843 5843 5843 5843 5844 5844 5844 5844 5844 5844 5844 5843 5843 5843 5843 5843 5843 5843 5843 5842 5842 5841 5840 5839 5838 5837 5836 5834 5832 5830 5828 5825 5822 5819 5816
5839 5840 5841 5841 5838 5838 5838 5839 5839 5837 5839 5840 5838 5837 5837 5837 5837 5837 5837 5837 5838 5838 5838 5838 5837 5837 5837 5836 5837 5837 5837 5836 5836 5836 5835 5834 5833 5832 5831 5829 5828 5827 5825 5822 5819 5815 5813 5809 5807
5832 5832 5834 5833 5831 5827 5830 5830 5831 5829 5830 5831 5830 5831 5830 5829 5830 5830 5829 5830 5831 5832 5832 5831 5830 5829 5829 5829 5829 5829 5829 5828 5828 5828 5827 5827 5826 5824 5823 5822 5821 5818 5816 5813 5810 5806 5802 5799 5796
5825 5825 5825 5823 5821 5819 5818 5815 5821 5823 5821 5821 5822 5823 5822 5822 5821 5821 5821 5823 5824 5824 5824 5824 5823 5822 5822 5822 5822 5822 5822 5821 5821 5820 5819 5819 5818 5817 5816 5814 5812 5809 5806 5803 5800 5796 5792 5787 5783
5816 5817 5815 5814 5811 5810 5810 5798 5812 5815 5814 5814 5815 5813 5814 5815 5814 5813 5813 5814 5814 5815 5816 5815 5814 5814 5814 5814 5814 5814 5814 5813 5812 5811 5811 5810 5809 5808 5807 5804 5801 5799 5796 5792 5789 5785 5780 5776 5771
5809 5808 5806 5804 5802 5799 5801 5794 5796 5807 5809 5809 5807 5805 5806 5806 5805 5805 5804 5804 5805 5806 5805 5805 5805 5805 5805 5805 5805 5805 5805 5804 5803 5802 5801 5801 5800 5798 5796 5793 5791 5787 5784 5780 5775 5771 5767 5762 5757
5799 5798 5797 5795 5791 5783 5796 5790 5776 5795 5800 5801 5800 5799 5797 5796 5797 5797 5796 5795 5795 5795 5795 5795 5795 5796 5796 5796 5796 5796 5795 5794 5794 5793 5792 5791 5789 5787 5784 5781 5778 5774 5770 5766 5762 5757 5752 5747 5742
5788 5789 5786 5782 5777 5774 5782 5777 5772 5780 5788 5789 5789 5789 5788 5787 5787 5787 5786 5786 5784 5785 5785 5785 5786 5787 5787 5787 5787 5786 5785 5785 5785 5784 5782 5780 5778 5775 5772 5768 5765 5761 5757 5753 5748 5743 5737 5732 5726
5775 5777 5775 5769 5770 5767 5766 5762 5769 5771 5774 5777 5779 5780 5779 5777 5776 5775 5775 5774 5774 5775 5776 5776 5777 5777 5777 5777 5777 5776 5776 5775 5774 5772 5771 5769 5766 5763 5759 5755 5752 5748 5744 5739 5734 5728 5722 5715 5709
5763 5761 5768 5763 5759 5754 5755 5757 5760 5762 5763 5766 5770 5770 5769 5767 5765 5764 5764 5764 5765 5766 5766 5766 5767 5767 5768 5767 5766 5765 5765 5763 5762 5761 5759 5756 5753 5750 5747 5743 5739 5734 5729 5723 5718 5712 5704 5697 5690
5747 5753 5752 5751 5747 5745 5742 5745 5748 5752 5752 5753 5758 5760 5759 5757 5756 5755 5754 5754 5755 5755 5756 5757 5758 5758 5757 5757 5756 5755 5754 5753 5751 5749 5746 5743 5740 5737 5733 5729 5724 5718 5713 5707 5700 5694 5687 5679 5672
5737 5737 5738 5739 5737 5734 5733 5735 5736 5738 5744 5746 5745 5746 5747 5747 5746 5744 5744 5745 5746 5746 5746 5747 5747 5747 5747 5746 5744 5744 5743 5741 5738 5736 5733 5730 5727 5723 5719 5714 5708 5702 5697 5691 5684 5677 5669 5661 5653
5720 5721 5722 5724 5728 5730 5727 5722 5728 5728 5734 5735 5734 5734 5734 5736 5738 5736 5734 5734 5735 5736 5736 5736 5736 5735 5735 5734 5733 5732 5731 5728 5726 5723 5719 5716 5712 5707 5702 5697 5691 5685 5679 5673 5666 5658 5649 5642 5633